Ord, NE

1:45 AM CDT on September 01, 2016 (GMT -0500)
Sharp

Weather History for KODX - November, 2012

Change the Weather History Date:

Monday, November 5, 2012

  Actual Average Record
Temperature  
Mean Temperature 42 °F 41 °F  
Max Temperature 46 °F 54 °F 75 °F (2001)
Min Temperature 37 °F 29 °F 17 °F (2010)
Degree Days  
Heating Degree Days 23 24  
Month to date heating degree days 124 114  
Since 1 July heating degree days 815 734  
Cooling Degree Days 0 0  
Month to date cooling degree days 0 0  
Year to date cooling degree days 1220 845  
Moisture  
Dew Point 34 °F    
Average Humidity 79    
Maximum Humidity 92    
Minimum Humidity 65    
Precipitation  
Precipitation 0.00 in 0.05 in 2.90 in (1918)
Month to date precipitation T 0.24  
Year to date precipitation 11.37 23.52  
Sea Level Pressure  
Sea Level Pressure 30.16 in    
Wind  
Wind Speed 10 mph (NNW)    
Max Wind Speed 22 mph    
Max Gust Speed 29 mph    
Visibility 10 miles    
Events      
T = Trace of Precipitation, MM = Missing Value Source: NWS Daily Summary

Daily Weather History Graph

Daily Weather History Graph

Search for Another Location

Airport or City:

Trip Planner

Search our weather history database for the weather conditions in past years. The results will help you decide how hot, cold, wet, or windy it might be!

Date:

Astronomy

Nov. 05, 2012 Rise Set
Actual Time 7:13 AM CST 5:25 PM CST
Civil Twilight 6:44 AM CST 5:54 PM CST
Nautical Twilight 6:11 AM CST 6:27 PM CST
Astronomical Twilight 5:38 AM CST 6:59 PM CST
Moon 11:04 PM CST (11/5) 12:33 PM CST (11/5)
Length of Visible Light 11h 10m
Length of Day
10h 11m
Waning Gibbous, 62% of the Moon is Illuminated
Nov 5
Waning Gibbous
Nov 6
Last Quarter
Nov 13
New
Nov 20
First Quarter
Nov 28
Full

Hourly Weather History & Observations

Time (CST) Temp. Windchill Dew Point Humidity Pressure Visibility Wind Dir Wind Speed Gust Speed Precip Events Conditions
12:53 AM 41.0 °F 33.5 °F 37.9 °F 89% 30.16 in 9.0 mi NNW 13.8 mph - N/A   Overcast
1:23 AM 39.2 °F 30.8 °F 35.6 °F 87% 30.12 in 10.0 mi NNW 15.0 mph 21.9 mph N/A   Overcast
1:44 AM 39.2 °F 29.0 °F 35.6 °F 87% 30.13 in 10.0 mi NNW 21.9 mph 27.6 mph N/A   Overcast
1:53 AM 39.0 °F 29.3 °F 35.1 °F 86% 30.17 in 10.0 mi NNW 19.6 mph 27.6 mph N/A   Overcast
2:30 AM 39.2 °F 30.5 °F 35.6 °F 87% 30.14 in 10.0 mi North 16.1 mph - N/A   Overcast
2:53 AM 37.9 °F 29.2 °F 35.1 °F 89% 30.17 in 10.0 mi NNW 15.0 mph - N/A   Overcast
3:04 AM 37.4 °F 26.9 °F 35.6 °F 93% 30.14 in 10.0 mi NNW 20.7 mph 25.3 mph N/A   Overcast
3:30 AM 37.4 °F 27.2 °F 33.8 °F 87% 30.15 in 10.0 mi NNW 19.6 mph 24.2 mph N/A   Overcast
3:53 AM 37.0 °F 27.4 °F 34.0 °F 89% 30.19 in 9.0 mi NNW 17.3 mph - N/A   Overcast
4:53 AM 37.0 °F 27.4 °F 34.0 °F 89% 30.20 in 10.0 mi NNW 17.3 mph 23.0 mph N/A   Overcast
5:53 AM 37.0 °F 27.0 °F 33.1 °F 86% 30.22 in 10.0 mi North 18.4 mph 28.8 mph N/A   Overcast
6:07 AM 37.4 °F 28.9 °F 33.8 °F 87% 30.18 in 10.0 mi North 13.8 mph 21.9 mph N/A   Overcast
6:36 AM 37.4 °F 31.4 °F 33.8 °F 87% 30.17 in 10.0 mi NNW 8.1 mph - N/A   Overcast
6:53 AM 37.0 °F 30.4 °F 33.1 °F 86% 30.22 in 10.0 mi NNW 9.2 mph - N/A   Overcast
7:46 AM 37.4 °F 29.3 °F 33.8 °F 87% 30.19 in 10.0 mi North 12.7 mph - N/A   Overcast
7:53 AM 37.0 °F 29.3 °F 33.1 °F 86% 30.23 in 10.0 mi North 11.5 mph - N/A   Overcast
8:53 AM 39.0 °F 32.8 °F 34.0 °F 82% 30.24 in 10.0 mi North 9.2 mph - N/A   Overcast
9:46 AM 41.0 °F 34.3 °F 33.8 °F 76% 30.20 in 10.0 mi NNW 11.5 mph - N/A   Overcast
9:53 AM 39.9 °F 32.5 °F 34.0 °F 79% 30.25 in 10.0 mi NNW 12.7 mph - N/A   Overcast
10:53 AM 42.1 °F 35.2 °F 34.0 °F 73% 30.24 in 10.0 mi NNW 12.7 mph - N/A   Overcast
11:53 AM 43.0 °F 37.2 °F 34.0 °F 71% 30.23 in 10.0 mi NNW 10.4 mph - N/A   Overcast
12:53 PM 44.1 °F 39.0 °F 34.0 °F 68% 30.19 in 10.0 mi WNW 9.2 mph - N/A   Overcast
1:53 PM 44.1 °F 41.5 °F 34.0 °F 68% 30.16 in 10.0 mi West 4.6 mph - N/A   Overcast
2:43 PM 44.6 °F 41.4 °F 35.6 °F 71% 30.10 in 10.0 mi West 5.8 mph - N/A   Scattered Clouds
2:53 PM 45.0 °F - 35.1 °F 68% 30.15 in 10.0 mi Calm Calm - N/A   Scattered Clouds
3:53 PM 45.0 °F 43.5 °F 35.1 °F 68% 30.13 in 10.0 mi ESE 3.5 mph - N/A   Clear
4:53 PM 44.1 °F 42.5 °F 34.0 °F 68% 30.12 in 10.0 mi SE 3.5 mph - N/A   Clear
5:53 PM 44.1 °F 40.1 °F 34.0 °F 68% 30.11 in 10.0 mi SE 6.9 mph - N/A   Clear
6:53 PM 43.0 °F 38.8 °F 34.0 °F 71% 30.09 in 10.0 mi SE 6.9 mph - N/A   Mostly Cloudy
7:53 PM 41.0 °F 35.8 °F 33.1 °F 73% 30.09 in 10.0 mi SSE 8.1 mph - N/A   Mostly Cloudy
8:53 PM 39.9 °F 35.8 °F 32.0 °F 73% 30.07 in 10.0 mi SSE 5.8 mph - N/A   Partly Cloudy
9:53 PM 39.9 °F 35.8 °F 33.1 °F 77% 30.06 in 10.0 mi SSE 5.8 mph - N/A   Clear
10:53 PM 39.9 °F 35.1 °F 33.1 °F 77% 30.06 in 10.0 mi ESE 6.9 mph - N/A   Overcast
11:53 PM 39.9 °F 33.9 °F 33.1 °F 77% 30.02 in 10.0 mi South 9.2 mph - N/A   Partly Cloudy